Tracking 19242 objects as of 19-Sep-2018
HD Live streaming from Space Station
objects crossing your sky now

EKRAN 6

Track EKRAN 6 now!
EKRAN 6 is classified as:


NORAD ID: 12120
Int'l Code: 1980-104A
Perigee: 35,754.1 km
Apogee: 35,821.1 km
Inclination: 12.5 °
Period: 1,435.8 minutes
Semi major axis: 42158 km
RCS: 6.3095 m2 (large)
Launch date: December 26, 1980
Source: Commonwealth of Independent States (former USSR) (CIS)
Launch site: TYURATAM MISSILE AND SPACE COMPLEX (TTMTR)
aabbcc
Your satellite tracking list
Your tracking list is empty




NASA's NSSDC Master Catalog

Two Line Element Set (TLE):
1 12120U 80104A   18260.90507017 -.00000298 +00000-0 +00000-0 0  9995
2 12120 012.4536 321.2255 0007948 342.8538 114.5389 01.00293601099045
Source of the keplerian elements: AFSPC